Regional Weather Roundup
Issued by NWS Kansas City/Pleasant Hill, MO

Home | Current Version | Previous Version | Graphics & Text | Print | Product List | Glossary Off
Versions: 1 2 3 4 5 6 7 8 9 10 11 12 13 14 15 16 17 18 19 20 21 22 23 24 25 26 27 28 29 30 31 32 33 34 35 36 37 38 39 40 41 42 43 44 45 46 47 48 49 50

044
ASUS43 KEAX 211310
RWREAX

WEATHER ROUNDUP FOR EASTERN KANSAS AND NORTHWEST MISSOURI
NATIONAL WEATHER SERVICE KANSAS CITY/PLEASANT HILL MO
700 AM CST SAT JAN 21 2017

KSZ040-057-103>105-MOZ028-029-037-043-211400-
...KANSAS CITY METROPOLITAN AREA...

CITY           SKY/WX    TMP DP  RH WIND       PRES   REMARKS
K.C. INTL      FOG       41  39  93 SW8       29.47R VSB 1/2
K.C. DOWNTOWN  CLOUDY    41  40  96 W8        29.48S FOG
LEES SUMMIT    CLOUDY    40  39  97 SW12      29.49R FOG     WCI  33
OLATHE - IXD   FOG       38  38 100 S7        29.48S VSB 1/4 WCI  33
OLATHE - OJC   FOG       37  37 100 SW3       29.48S VSB 1/4
LAWRENCE       FOG       38  38 100 CALM      29.48S VSB 1/4

$$

MOZ001>008-011>017-020>025-030>033-038>040-044>046-053-054-211400-
...NORTHERN AND CENTRAL MISSOURI...

CITY           SKY/WX    TMP DP  RH WIND       PRES   REMARKS
ST. JOSEPH     FOG       40  40 100 SW9       29.46R VSB 1/2 WCI  34
MOSBY          FOG       41  41 100 CALM      29.47S VSB 1/2
WARRENSBURG    CLOUDY    41  37  87 S10       29.52R WCI  35
WHITEMAN AFB   MOCLDY    43  43 100 SW13      29.50R
CLINTON        PTCLDY    41  36  81 SW7       29.53R
SEDALIA        CLEAR     47  38  71 SW15      29.52R
WARSAW         NOT AVBL
CHILLICOTHE      N/A     38  38 100 S3        29.46R
KIRKSVILLE     CLEAR     42  38  85 SW9       29.44R

$$

MOZ041-047>049-056>058-063>065-088>090-097-211400-
...EASTERN AND SOUTHERN MISSOURI...

CITY           SKY/WX    TMP DP  RH WIND       PRES   REMARKS
ST. LOUIS INTL PTCLDY    52  45  77 S9        29.53S
SPIRIT OF STL  CLEAR     53  45  74 SW6       29.52R
COLUMBIA       CLEAR     46  39  76 SW12      29.50R
JEFFERSON CITY CLEAR     50  39  66 S5        29.51R
ROLLA          CLEAR     49  43  80 S12       29.52R
OSAGE BEACH    PTCLDY    47  39  74 S6        29.53R
SPRINGFIELD    CLEAR     42  35  76 SW8       29.54R
BRANSON        CLEAR     50  37  62 SE6       29.57S
JOPLIN         CLEAR     43  35  73 SW5       29.55R
WEST PLAINS    PTCLDY    48  44  86 S6        29.59R

$$

IAZ060-094-KSZ022-034>040-054-083-096-NEZ052-066-093-211400-
...KANSAS...SOUTHEAST NEBRASKA AND IOWA...

CITY           SKY/WX    TMP DP  RH WIND       PRES   REMARKS
TOPEKA         FOG       32  30  92 SW3       29.47R VSB 1/4
MANHATTAN      CLEAR     34  33  96 SW7       29.46F WCI  28
EMPORIA        CLEAR     32  32 100 SW6       29.47R WCI  26
CHANUTE        CLEAR     35  33  92 S7        29.51S WCI  29
WICHITA        CLEAR     31  29  92 SW6       29.49R WCI  25
OMAHA          CLOUDY    40  37  89 SW5       29.40R FOG
LINCOLN        MOCLDY    35  33  92 CALM      29.43R
FALLS CITY     CLOUDY    42  41  96 W10       29.44R
LAMONI         CLOUDY    42  42 100 W8        29.41R FOG
DES MOINES     FOG       44  43  96 S7        29.40R VSB 1/4

$$





USA.gov is the U.S. government's official web portal to all federal, state and local government web resources and services.